[[{"header":{"parameterUnit":"m.s-1","parameterCategory":1,"la1":30.2991,"la2":30.254,"lo1":-89.0895,"lo2":-89.0444,"dy":0.0017,"dx":0.0017,"nx":28,"ny":28,"refTime":"2024-07-03T03:00:00:Z","depth":0,"parameterNumber":2,"parameterNumberName":"U-component_of_WINDS"},"data":[0,0,0,0,0,0,0,0,0,0,0,0,0,0,0,0,0,0,0,0,0,0,0,0,0,0,0,0,0,0,0,0,0,0,0,0,0,0,0,0,0,0,0,0,0,0,0,0,0,0,0,0,0,0,0,0,0,0,-0.0183,-0.0181,0,-0.0061,-0.006,-0.0058,-0.0005,-0.0005,-0.0006,-0.0006,0.0119,0.0123,0.0126,0,0,0,0,0,0,0,0,0,0,0,0,0,-0.0369,-0.0366,-0.0183,-0.0181,-0.018,-0.0061,-0.006,-0.0058,-0.0005,-0.0005,-0.0006,-0.0006,0.0118,0.0122,0.0126,0,0,0,0,0,0,0,0,0,0,0,0,0,-0.0272,-0.0365,-0.0183,-0.0139,-0.0134,-0.0062,-0.006,-0.0058,-0.0005,-0.0005,-0.0006,-0.0006,0.0117,0.0122,0.0127,0.0165,0,0,0.0143,0.0145,0,0,0,0,0,0,0,0,-0.0278,-0.0265,-0.0147,-0.0142,-0.0136,-0.0049,-0.0079,0.0017,-0.0005,-0.0054,-0.0006,-0.0006,0.0064,0.0073,0.0097,0.0171,0.0176,0.0144,0.0147,0.0149,0.015,0,0,0,0,0,0,0,-0.0284,-0.027,-0.0135,-0.0145,-0.0139,-0.0126,-0.0112,-0.0061,0.0005,-0.005,-0.0046,-0.0032,0.0067,0.0091,0.01,0.0178,0.0143,0.0148,0.0151,0.0153,0.0289,0.029,0,0,0,0,0,0,-0.0298,-0.0276,-0.0138,-0.0131,-0.0209,-0.0122,-0.0107,-0.0076,0.0004,0.0016,-0.0032,-0.003,0.0083,0.0094,0.0105,0.0154,0.0149,0.0154,0.0157,0.0289,0.0289,0.029,0,0,0,0,0,0,-0.0303,-0.0287,-0.0143,-0.0202,-0.0183,-0.0118,-0.0085,-0.0074,-0.0049,0.0018,0.003,-0.0019,0.0083,0.0097,0.0149,0.016,0.0156,0.0161,0.0288,0.0289,0.029,0.0254,0,0,0,0,0,0,-0.0308,-0.0288,-0.0273,-0.0202,-0.018,-0.0101,-0.0084,-0.0071,-0.004,-0.0036,0.0034,0.0045,0.0084,0.0141,0.0155,0.0167,0.0165,0.0288,0.0289,0.0289,0.0255,0.0253,0.0252,0,0,0,0,0,-0.0315,-0.0288,-0.0273,-0.0256,-0.016,-0.01,-0.0087,-0.0044,-0.004,-0.0024,0.0019,0.0043,0.0156,0.0146,0.0162,0.0175,0.0287,0.0288,0.0289,0.0255,0.0254,0.0252,0,0,0,0,0,0,-0.0359,-0.0278,-0.026,-0.0209,-0.0162,-0.0091,-0.007,-0.0047,0.0001,0.0002,0.0055,0.007,0.0118,0.0152,0.014,0.0216,0.0224,0.0228,0.0192,0.0192,0.019,0.0181,0.0169,0,0,0,0,0,-0.0363,-0.0321,-0.0253,-0.0215,-0.0192,-0.0135,-0.0108,-0.0078,-0.0027,-0.0006,0.004,0.0089,0.0136,0.0166,0.0212,0.026,0.0276,0.0277,0.0275,0.0274,0.0277,0.0305,0.0306,0.0293,0.0293,0.0293,0,0,-0.0371,-0.0321,-0.0298,-0.0222,-0.0182,-0.014,-0.0119,-0.0075,-0.0043,0.0,0.0053,0.0088,0.0146,0.0196,0.0221,0.0226,0.0284,0.0276,0.0274,0.0278,0.0306,0.0307,0.0308,0.0294,0.0294,0.0294,0,0,-0.0363,-0.0321,-0.0285,-0.0245,-0.0185,-0.0148,-0.0139,-0.0072,-0.0046,0.0007,0.004,0.0079,0.0158,0.0198,0.0229,0.0251,0.0274,0.0264,0.0259,0.0285,0.0286,0.0287,0.0296,0.0298,0.0267,0.0267,0.0267,0,-0.038,-0.0315,-0.0269,-0.0227,-0.0195,-0.0154,-0.0117,-0.0081,-0.0008,0.0013,0.0018,0.0118,0.016,0.022,0.0225,0.0249,0.026,0.0257,0.0282,0.0284,0.0286,0.0294,0.0297,0.0266,0.0266,0.0266,0.0266,0,-0.0339,-0.0295,-0.0273,-0.0204,-0.0169,-0.013,-0.0078,-0.0049,-0.0022,0.0014,0.0068,0.0119,0.0177,0.0193,0.022,0.0257,0.0259,0.0272,0.0281,0.0285,0.0293,0.0297,0.0263,0.0264,0.0264,0.0265,0,0,-0.0355,-0.0262,-0.0255,-0.0223,-0.0153,-0.0118,-0.0078,-0.0021,0.0003,0.0052,0.0087,0.0153,0.0166,0.0201,0.0232,0.0255,0.0269,0.0266,0.0268,0.0265,0.0313,0.0303,0.0306,0.0285,0.0286,0.0286,0.0309,0,-0.0338,-0.0262,-0.022,-0.0163,-0.0121,-0.0082,-0.0046,0.0,0.0035,0.0076,0.0115,0.016,0.0174,0.0195,0.022,0.0262,0.028,0.0261,0.0319,0.032,0.0303,0.031,0.03,0.0318,0.0312,0.0313,0.0313,0,-0.0307,-0.026,-0.0198,-0.0133,-0.0114,-0.0083,-0.0028,0.001,0.0063,0.0087,0.0125,0.0156,0.0201,0.0205,0.0267,0.0254,0.028,0.0304,0.0306,0.0314,0.0317,0.0318,0.0325,0.0328,0.0319,0.0319,0.0318,0,-0.0325,-0.0246,-0.0198,-0.0172,-0.0096,-0.0075,-0.0042,0.0011,0.0042,0.009,0.011,0.0163,0.0191,0.0231,0.0275,0.0274,0.0333,0.0341,0.0355,0.0353,0.0366,0.0364,0.0377,0.0382,0.0381,0.0381,0.0381,0,-0.031,-0.0273,-0.0205,-0.0176,-0.0134,-0.0086,-0.0047,-0.0011,0.0036,0.0073,0.011,0.0143,0.0199,0.024,0.0275,0.0321,0.0334,0.0354,0.0363,0.0352,0.0349,0.037,0.037,0.0382,0.0382,0.0382,0.0382,0,-0.0322,-0.0275,-0.0221,-0.0153,-0.0135,-0.0108,-0.005,-0.002,0.0017,0.0063,0.0076,0.0134,0.0184,0.0232,0.0298,0.0322,0.0368,0.0379,0.035,0.0355,0.0365,0.0364,0.0392,0.0399,0.0398,0.0398,0.0398,0,-0.0315,-0.0286,-0.0216,-0.0189,-0.0157,-0.0113,-0.0081,-0.0033,-0.0002,0.0061,0.0083,0.0135,0.018,0.0257,0.0305,0.0356,0.0369,0.0376,0.0377,0.0364,0.037,0.0368,0.0371,0.0375,0.0375,0.0374,0.0374,0,-0.0308,-0.0286,-0.0242,-0.0189,-0.0153,-0.0109,-0.0064,-0.0044,0.0013,0.0046,0.0098,0.0132,0.02,0.0251,0.0307,0.0341,0.0367,0.0373,0.0379,0.0367,0.0349,0.036,0.0347,0.0373,0.0373,0.0373,0.0373,0.0373,-0.031,-0.0283,-0.0229,-0.0181,-0.0142,-0.0101,-0.007,-0.0029,0.0014,0.0073,0.0099,0.015,0.0203,0.0281,0.0315,0.0356,0.0362,0.037,0.0373,0.0374,0.0372,0.0342,0.0366,0.0366,0.0366,0.0367,0.0367,0,-0.0301,-0.0264,-0.0221,-0.0159,-0.0121,-0.01,-0.005,-0.0019,0.0025,0.0072,0.0115,0.0173,0.0223,0.0275,0.0328,0.0351,0.0364,0.0363,0.0362,0.037,0.0363,0.0353,0.0352,0.0352,0.0352,0.0352,0.0352,0.0352,-0.0292,-0.0244,-0.0216,-0.0149,-0.0112,-0.0062,-0.0034,0.0004,0.0041,0.0105,0.0146,0.018,0.0228,0.0285,0.0332,0.0346,0.0364,0.0359,0.0377,0.0369,0.037,0.0371,0.0362,0.0363,0.0363,0.038,0.038,0.0381]},{"header":{"parameterUnit":"m.s-1","parameterCategory":1,"la1":30.2991,"la2":30.254,"lo1":-89.0895,"lo2":-89.0444,"dy":0.0017,"dx":0.0017,"nx":28,"ny":28,"refTime":"2024-07-03T03:00:00:Z","depth":0,"parameterNumber":3,"parameterNumberName":"V-component_of_WINDS"},"data":[0,0,0,0,0,0,0,0,0,0,0,0,0,0,0,0,0,0,0,0,0,0,0,0,0,0,0,0,0,0,0,0,0,0,0,0,0,0,0,0,0,0,0,0,0,0,0,0,0,0,0,0,0,0,0,0,0,0,5.1188,5.1188,0,5.1186,5.1186,5.1186,5.1152,5.1151,5.1151,5.115,5.1145,5.1146,5.1147,0,0,0,0,0,0,0,0,0,0,0,0,0,5.1164,5.1164,5.1188,5.1188,5.1188,5.1186,5.1186,5.1186,5.1152,5.1151,5.115,5.1149,5.1145,5.1146,5.1147,0,0,0,0,0,0,0,0,0,0,0,0,0,5.1169,5.1164,5.1188,5.1171,5.117,5.1186,5.1186,5.1186,5.1153,5.1151,5.115,5.1149,5.1145,5.1146,5.1147,5.1178,0,0,5.115,5.115,0,0,0,0,0,0,0,0,5.1169,5.117,5.1174,5.1172,5.1171,5.1168,5.1175,5.1183,5.1153,5.1159,5.115,5.1148,5.1154,5.1154,5.1156,5.1178,5.1178,5.115,5.1151,5.1151,5.1151,0,0,0,0,0,0,0,5.1168,5.117,5.1187,5.1174,5.1172,5.1164,5.1163,5.1177,5.1163,5.1158,5.1156,5.1156,5.1153,5.1155,5.1156,5.1178,5.115,5.1151,5.1152,5.1152,5.1227,5.1228,0,0,0,0,0,0,5.1171,5.117,5.1187,5.1187,5.1167,5.1165,5.1164,5.117,5.1163,5.1161,5.1157,5.1155,5.1154,5.1155,5.1156,5.1193,5.1151,5.1152,5.1153,5.1225,5.1227,5.1229,0,0,0,0,0,0,5.117,5.1172,5.1187,5.1178,5.1179,5.1167,5.1174,5.1171,5.1173,5.1162,5.116,5.1162,5.1153,5.1154,5.1173,5.1192,5.1152,5.1153,5.1224,5.1226,5.1228,5.1267,0,0,0,0,0,0,5.117,5.1172,5.1184,5.1178,5.118,5.1205,5.1175,5.1172,5.1175,5.1172,5.1167,5.1164,5.1152,5.1172,5.1174,5.1193,5.1154,5.1222,5.1225,5.1227,5.1264,5.127,5.1275,0,0,0,0,0,5.1169,5.1194,5.1185,5.1187,5.1194,5.1206,5.1207,5.1193,5.1177,5.1189,5.1182,5.1165,5.119,5.1174,5.1177,5.1196,5.1221,5.1224,5.1227,5.1261,5.1269,5.1275,0,0,0,0,0,0,5.1201,5.1193,5.1183,5.1207,5.1208,5.1201,5.1215,5.1201,5.1206,5.1203,5.1185,5.1184,5.1206,5.1203,5.1185,5.1226,5.1202,5.1206,5.1228,5.1235,5.124,5.124,5.1155,0,0,0,0,0,5.1212,5.1223,5.1215,5.1237,5.1238,5.1227,5.1232,5.1221,5.1221,5.1221,5.1215,5.1215,5.1223,5.1229,5.1235,5.1263,5.1262,5.1278,5.1283,5.1288,5.1291,5.1307,5.1314,5.1239,5.1239,5.1239,0,0,5.1233,5.123,5.1237,5.1244,5.1243,5.1255,5.1227,5.124,5.1249,5.1222,5.124,5.1237,5.1236,5.126,5.127,5.1258,5.1312,5.1292,5.1296,5.1297,5.1311,5.1318,5.1324,5.1241,5.1241,5.124,0,0,5.1277,5.1276,5.1295,5.1295,5.1295,5.1288,5.1293,5.1288,5.1285,5.1303,5.1284,5.1294,5.1307,5.1308,5.131,5.1357,5.1341,5.136,5.1389,5.1405,5.1411,5.1416,5.1433,5.1439,5.1363,5.1363,5.1363,0,5.1302,5.132,5.1306,5.1321,5.1325,5.1303,5.1323,5.1324,5.1325,5.1328,5.1315,5.1333,5.1331,5.1355,5.1367,5.1369,5.1374,5.136,5.1411,5.1416,5.1421,5.1437,5.1443,5.1365,5.1365,5.1365,5.1365,0,5.1352,5.1365,5.138,5.1384,5.139,5.1407,5.1396,5.1403,5.1393,5.1387,5.1406,5.1403,5.1409,5.1414,5.1404,5.1438,5.143,5.1414,5.139,5.143,5.1445,5.1451,5.1369,5.1368,5.1367,5.1367,0,0,5.1415,5.1413,5.1419,5.1421,5.142,5.1429,5.1446,5.1453,5.146,5.1463,5.1477,5.149,5.1476,5.1478,5.1468,5.1481,5.152,5.1464,5.1463,5.1474,5.1558,5.157,5.1577,5.151,5.1511,5.1512,5.1558,0,5.1458,5.1487,5.1476,5.1506,5.1518,5.1498,5.1513,5.1514,5.151,5.1519,5.1513,5.1524,5.1504,5.1505,5.1518,5.1512,5.1536,5.1509,5.1522,5.1523,5.1523,5.1585,5.1597,5.1641,5.1564,5.1565,5.1565,0,5.1511,5.1518,5.1549,5.1548,5.1553,5.1566,5.1573,5.1582,5.1584,5.1579,5.1583,5.157,5.1587,5.1563,5.1586,5.1568,5.1573,5.1571,5.1572,5.1573,5.1546,5.1587,5.1655,5.1661,5.1574,5.1574,5.1573,0,5.1555,5.1571,5.1593,5.1595,5.1594,5.1604,5.1604,5.1605,5.161,5.1616,5.162,5.1627,5.1631,5.1637,5.1626,5.161,5.1651,5.1626,5.1648,5.1648,5.1656,5.1656,5.1726,5.166,5.166,5.166,5.166,0,5.1604,5.1624,5.1612,5.1625,5.1648,5.1635,5.1658,5.1655,5.1656,5.1669,5.1652,5.1664,5.1649,5.166,5.1651,5.1672,5.1674,5.1671,5.1668,5.1672,5.1673,5.1675,5.1672,5.1661,5.1661,5.1661,5.166,0,5.1656,5.1649,5.1671,5.1669,5.1669,5.1686,5.1684,5.1696,5.1691,5.1707,5.171,5.1702,5.1714,5.1704,5.1715,5.171,5.1737,5.173,5.1737,5.1735,5.1758,5.1756,5.1831,5.1841,5.1769,5.177,5.177,0,5.1687,5.1703,5.1704,5.1711,5.1713,5.1725,5.1731,5.172,5.1727,5.1731,5.1743,5.1754,5.1761,5.1781,5.1776,5.1784,5.1778,5.1804,5.1779,5.1783,5.1779,5.1778,5.178,5.1809,5.1809,5.181,5.1811,0,5.1745,5.1741,5.1751,5.1761,5.1769,5.1776,5.1781,5.1788,5.1777,5.1786,5.1798,5.1805,5.1817,5.1828,5.1835,5.1834,5.1821,5.1819,5.1824,5.1828,5.1832,5.1831,5.1751,5.1817,5.1816,5.1816,5.1815,5.1815,5.1787,5.1801,5.1804,5.1816,5.182,5.1826,5.1837,5.1835,5.1845,5.1855,5.1848,5.1863,5.1865,5.1874,5.1875,5.1887,5.1876,5.1884,5.1886,5.1888,5.1892,5.1831,5.1888,5.1888,5.1888,5.1888,5.1887,0,5.1844,5.1846,5.1858,5.1867,5.1877,5.1864,5.187,5.1879,5.1893,5.1897,5.1905,5.192,5.1931,5.1928,5.1938,5.1948,5.1942,5.195,5.195,5.195,5.19,5.1895,5.1955,5.1955,5.1955,5.1955,5.1955,5.1955,5.1875,5.1898,5.1895,5.1919,5.192,5.1936,5.194,5.1946,5.1949,5.1967,5.1976,5.1975,5.1976,5.1986,5.1995,5.1994,5.1998,5.201,5.2006,5.196,5.1953,5.1947,5.1941,5.2011,5.2011,5.2054,5.2055,5.2055]}]]